Showing default

GJZ 05, 62294

Orbit data source: Space-Track

GJZ 05, 62294 is a payload satellite owned by CASC (CN) in LEO that was launched on Thu, 12 Dec 2024 UTC via a CHANG ZHENG 2D/YZ-3 launch vehicle from the Jiuquan Satellite Launch Center, China (JSC). Payload-class satellites include a variety of spacecraft equipped with specific instruments for various scientific and technological missions. These include communications satellites like Starlink; space stations such as the ISS; scientific satellites like the Hubble; Earth observation satellites from companies like Planet Labs, Umbra, and HawkEye 360; GPS; miniature CubeSats for education and research; and military/defense satellites.

Loading next visibility...
Identifier
62294, 2024-238E
Orbit
LEO
Country
Flag of CNCN / PRC
Related business
Manufacturer
HITSAT
Mission
Operational Civil Communications
Bus & Motor
HARBFLAT, Unknown motor
Mass
~150 kg wet, ~150 kg dry
Launch date (UTC)
2024-12-12 (1 year ago)
Launch vehicle
CHANG ZHENG 2D/YZ-3
Launch site
Jiuquan Satellite Launch Center, China (JSC)
Object type
Payload
Rocket body
Debris
Shape & HBR
Box + 2 Pan, 1.5 m
Radar Cross Section
0.240 m², Large (>1 m²)

Expand to show TLE details & history
Last TLE update: 6 hours ago

TLE from 6 hours ago
0 GJZ 05
1 62294U 24238E   26126.24959376 -.00000020  00000-0  10265-3 0  9994
2 62294  59.9140  37.9151 0012100 339.9083  20.1447 13.75197596 70141
Epoch: 2026-05-06T05:59Z
TLE epoch observation values (Epoch: 2026-05-06T05:59:24.900Z)
Latitude
-0.00003°
Longitude
83.94854°
Altitude
974.096 km
Speed
7.37 km/s
True Right ascension
02h 31m 39s
True Declination
0° 00' 00"
Sunlit
Object was in daylight at epoch
Visualization orbit readout
Latitude
Unknown
Longitude
Unknown
Altitude
Unknown
Speed
Unknown
Apparent Right ascension
Unknown
Apparent Declination
Unknown
Sunlit
N/A
Visualization observer readout
Local Sidereal Time
19:36:28
Azimuth
Unknown
Elevation
Unknown
Doppler factor
Unknown
Orbital elements
Apogee altitude
989.142 km
Perigee altitude
971.334 km
Semi-major axis
7,358.375 km
Eccentricity
0.00121
Inclination
59.914°
RAAN
37.9151°
Arg. of periapsis
339.9083°
True anomaly
20.19252°
Mean anomaly
20.1447°
Eccentric anomaly
20.1686°
Mean motion
3.43851 °/min
Orbital period
104.7 mins
BSTAR
0.00010265
Loading maneuver chart data...
Computing Atmospheric mass density...
Loading historical data...
Loading historical data...
Loading historical data...
Loading historical data...
Loading historical data...
Loading historical data...
Loading historical data...
Other satellites on launch #238 in the year 2024 (2024-12-12 UTC)

Documentation

Showing up to 5 results
|